Flag for Germany Weather past 2 weeks in Herzogenrath, North Rhine-Westphalia, Germany

46 °F

Drizzle. Fog.

Feels Like: 44 °F
Forecast: 46 / 51 °F
Wind: 5 mph from Northwest

Location: Geilenkirchen Airport

Current Time: Dec 1, 2015 at 8:58:34 AM

Latest Report: Dec 1, 2015 at 7:50 AM

Visibility: 2 mi

Pressure: 30.18 "Hg

Humidity: 100%

Dew point: 46 °F

Location of HerzogenrathLocation

Historic Weather in Herzogenrath — Graph


Herzogenrath temperature yesterday

Maximum temperature yesterday: 52 °F (at 2:50 PM)
Minimum temperature yesterday: 46 °F (at 12:50 AM)
Average temperature yesterday: 49 °F

Past Weeks' High & Low Weather Summary

High61 °F (Nov 17, 5:50 PM)100% (Nov 19, 4:50 PM)30.27 "Hg (Nov 19, 4:50 PM)
Low30 °F (Nov 27, 4:50 AM)59% (Nov 18, 3:50 PM)29.59 "Hg (Nov 20, 4:50 PM)
Average46 °F84%29.94 "Hg
* Reported Nov 16 6:50 AM — Dec 1 6:50 AM, Herzogenrath, Weather by CustomWeather, © 2015

Note: Actual official high and low records may vary slightly from our data, if they occured in-between our weather recording intervals... More about our weather records


Herzogenrath weather history for previous 24 hours

Time TempWeatherWind HumidityBarometerVisibility
6:50 AM
Tue, Dec 1
48 °FDrizzle. Fog.9 mph94%30.18 "Hg2 mi
5:50 AM48 °FDrizzle. Fog.8 mph100%30.15 "Hg2 mi
4:50 AM50 °FDrizzle. Fog.14 mph94%30.12 "Hg1 mi
3:50 AM50 °FDrizzle. Fog.12 mph100%30.09 "Hg1 mi
2:50 AM52 °FDrizzle. Fog.21 mph94%30.07 "Hg2 mi
1:50 AM52 °FDrizzle. Fog.21 mph94%30.04 "Hg2 mi
12:50 AM52 °FDrizzle. Fog.24 mph94%30.01 "Hg2 mi
11:50 PM
Mon, Nov 30
52 °FDrizzle. Fog.24 mph94%29.98 "Hg2 mi
10:50 PM50 °FDrizzle. Fog.28 mph94%29.98 "Hg3 mi
9:50 PM50 °FDrizzle. Fog.28 mph94%29.95 "Hg3 mi
8:50 PM50 °FDrizzle. Mostly cloudy.28 mph94%29.92 "Hg4 mi
7:50 PM50 °FRain. Partly cloudy.29 mph94%29.92 "Hg2 mi
6:50 PM50 °FRain. Partly cloudy.25 mph94%29.92 "Hg2 mi
5:50 PM52 °FLight rain. Passing clouds.25 mph82%29.92 "HgN/A
4:50 PM52 °FLight rain. Mostly cloudy.25 mph82%29.92 "HgN/A
3:50 PM52 °FLight rain. Mostly cloudy.23 mph82%29.95 "HgN/A
2:50 PM52 °FMostly cloudy.23 mph82%29.98 "HgN/A
1:50 PM50 °FRain. Cloudy.22 mph94%30.01 "Hg4 mi
12:50 PM50 °FRain. Mostly cloudy.20 mph94%30.01 "Hg4 mi
11:50 AM48 °FRain. More clouds than sun.7 mph94%30.07 "Hg4 mi
10:50 AM48 °FLight rain. More clouds than sun.10 mph87%30.09 "Hg6 mi
9:50 AM46 °FLight rain. Mostly cloudy.5 mph93%30.09 "HgN/A
8:50 AM48 °FLight rain. Broken clouds.12 mph71%30.12 "HgN/A
Weather by CustomWeather, © 2015

See weather overviewHow to use our weather pages